Terminal Aerodrome Forecast
Issued by NWS

Home | Current Version | Previous Version | Text Only | Print | Product List | Glossary On
Versions: 1 2 3 4 5 6 7 8 9 10 11 12 13 14 15 16 17 18 19 20 21 22 23 24
000
FTUS44 KFWD 272300
TAFAFW
TAF
KAFW 272336Z 2800/2824 15005KT P6SM SKC
     FM281500 18016KT P6SM FEW030=

USA.gov is the U.S. government's official web portal to all federal, state and local government web resources and services.